When you browse on this site, cookies collect data to enhance your experience and personalize the content and advertising you see.
Visit our Privacy Policy to learn more. By continuing to use the site, you agree to this use of cookies and data.
  • In United Kingdom
  • List of Countries
  • For 7 days
  • Water Temperature
  • Weather Map
  • Weather Widgets
  • user-avatar
    Login

    Hourly Weather Khipro

    Today, 17 September, Tuesday

    Time Temperature Precipitation Wind Pressure Humidity
    00:00 +30°C° 0 mm 6 mps 750 mmHg 73%
    01:00 +30°C° 0 mm 6 mps 750 mmHg 76%
    02:00 +29°C° 0 mm 7 mps 749 mmHg 78%
    03:00 +29°C° 0 mm 6 mps 750 mmHg 80%
    04:00 +29°C° 0 mm 6 mps 750 mmHg 82%
    05:00 +29°C° 0 mm 6 mps 750 mmHg 83%
    06:00 +29°C° 0 mm 6 mps 750 mmHg 81%
    07:00 +30°C° 0 mm 6 mps 751 mmHg 79%
    08:00 +30°C° 0 mm 7 mps 752 mmHg 76%
    09:00 +33°C° 0 mm 7 mps 751 mmHg 65%
    10:00 +36°C° 0 mm 7 mps 751 mmHg 53%
    11:00 +39°C° 0 mm 7 mps 751 mmHg 42%
    12:00 +41°C° 0 mm 6 mps 751 mmHg 36%
    13:00 +42°C° 0 mm 6 mps 750 mmHg 31%
    14:00 +45°C° 0 mm 6 mps 750 mmHg 26%
    15:00 +45°C° 0 mm 6 mps 749 mmHg 25%
    16:00 +45°C° 0 mm 5 mps 749 mmHg 24%
    17:00 +45°C° 0 mm 5 mps 749 mmHg 24%
    18:00 +42°C° 0 mm 6 mps 749 mmHg 30%
    19:00 +40°C° 0 mm 6 mps 750 mmHg 37%
    20:00 +38°C° 0 mm 7 mps 750 mmHg 43%
    21:00 +36°C° 0 mm 6 mps 751 mmHg 48%
    22:00 +35°C° 0 mm 6 mps 751 mmHg 54%
    23:00 +34°C° 0 mm 6 mps 751 mmHg 59%

    Tomorrow, 18 September, Wednesday

    Time Temperature Precipitation Wind Pressure Humidity
    00:00 +33°C° 0 mm 6 mps 751 mmHg 63%
    01:00 +32°C° 0 mm 6 mps 752 mmHg 67%
    02:00 +30°C° 0 mm 7 mps 752 mmHg 70%
    03:00 +30°C° 0 mm 5 mps 752 mmHg 72%
    04:00 +30°C° 0 mm 4 mps 752 mmHg 75%
    05:00 +29°C° 0 mm 3 mps 752 mmHg 77%
    06:00 +30°C° 0 mm 4 mps 752 mmHg 74%
    07:00 +30°C° 0 mm 5 mps 753 mmHg 72%
    08:00 +30°C° 0 mm 5 mps 753 mmHg 70%
    09:00 +34°C° 0 mm 5 mps 754 mmHg 58%
    10:00 +36°C° 0 mm 5 mps 754 mmHg 47%
    11:00 +40°C° 0 mm 5 mps 754 mmHg 36%
    12:00 +41°C° 0 mm 4 mps 753 mmHg 32%
    13:00 +42°C° 0 mm 4 mps 753 mmHg 27%
    14:00 +44°C° 0 mm 4 mps 752 mmHg 23%
    15:00 +44°C° 0 mm 3 mps 752 mmHg 23%
    16:00 +44°C° 0 mm 3 mps 751 mmHg 22%
    17:00 +44°C° 0 mm 3 mps 751 mmHg 22%
    18:00 +43°C° 0 mm 3 mps 752 mmHg 24%
    19:00 +40°C° 0 mm 3 mps 752 mmHg 26%
    20:00 +39°C° 0 mm 3 mps 752 mmHg 28%
    21:00 +38°C° 0 mm 4 mps 753 mmHg 33%
    22:00 +37°C° 0 mm 4 mps 753 mmHg 37%
    23:00 +36°C° 0 mm 4 mps 753 mmHg 42%

    Day after tomorrow, 19 September, Thursday

    Time Temperature Precipitation Wind Pressure Humidity
    00:00 +35°C° 0 mm 5 mps 753 mmHg 46%
    01:00 +34°C° 0 mm 6 mps 752 mmHg 50%
    02:00 +33°C° 0 mm 6 mps 752 mmHg 55%
    03:00 +33°C° 0 mm 6 mps 752 mmHg 57%
    04:00 +32°C° 0 mm 5 mps 752 mmHg 59%
    05:00 +32°C° 0 mm 5 mps 752 mmHg 61%
    06:00 +33°C° 0 mm 5 mps 752 mmHg 58%
    07:00 +33°C° 0 mm 6 mps 753 mmHg 54%
    08:00 +34°C° 0 mm 6 mps 753 mmHg 50%
    09:00 +38°C° 0 mm 6 mps 753 mmHg 40%
    10:00 +41°C° 0 mm 5 mps 753 mmHg 30%
    11:00 +45°C° 0 mm 5 mps 753 mmHg 20%
    12:00 +45°C° 0 mm 4 mps 752 mmHg 17%
    13:00 +47°C° 0 mm 4 mps 751 mmHg 15%
    14:00 +47°C° 0 mm 3 mps 751 mmHg 13%
    15:00 +46°C° 0 mm 3 mps 750 mmHg 13%
    16:00 +46°C° 0 mm 2 mps 750 mmHg 12%
    17:00 +46°C° 0 mm 2 mps 750 mmHg 12%
    18:00 +45°C° 0 mm 3 mps 750 mmHg 14%
    19:00 +43°C° 0 mm 3 mps 751 mmHg 16%
    20:00 +41°C° 0 mm 4 mps 751 mmHg 18%
    21:00 +40°C° 0 mm 4 mps 751 mmHg 20%
    22:00 +38°C° 0 mm 4 mps 751 mmHg 22%
    23:00 +37°C° 0 mm 5 mps 751 mmHg 24%

    20 September, Friday

    Time Temperature Precipitation Wind Pressure Humidity
    00:00 +37°C° 0 mm 5 mps 751 mmHg 24%
    01:00 +36°C° 0 mm 5 mps 750 mmHg 25%
    02:00 +36°C° 0 mm 6 mps 750 mmHg 25%
    03:00 +35°C° 0 mm 5 mps 750 mmHg 27%
    04:00 +35°C° 0 mm 4 mps 750 mmHg 30%
    05:00 +34°C° 0 mm 4 mps 750 mmHg 32%
    06:00 +35°C° 0 mm 4 mps 750 mmHg 29%
    07:00 +36°C° 0 mm 4 mps 751 mmHg 26%
    08:00 +37°C° 0 mm 4 mps 751 mmHg 24%
    09:00 +41°C° 0 mm 4 mps 751 mmHg 20%
    10:00 +43°C° 0 mm 3 mps 751 mmHg 17%
    11:00 +45°C° 0 mm 3 mps 751 mmHg 13%
    12:00 +46°C° 0 mm 2 mps 750 mmHg 12%
    13:00 +47°C° 0 mm 2 mps 750 mmHg 11%
    14:00 +48°C° 0 mm 2 mps 749 mmHg 10%
    15:00 +48°C° 0 mm 2 mps 749 mmHg 10%
    16:00 +48°C° 0 mm 3 mps 748 mmHg 10%
    17:00 +48°C° 0 mm 3 mps 748 mmHg 10%
    18:00 +47°C° 0 mm 4 mps 748 mmHg 13%
    19:00 +45°C° 0 mm 5 mps 749 mmHg 15%
    20:00 +42°C° 0 mm 6 mps 749 mmHg 18%
    21:00 +41°C° 0 mm 6 mps 749 mmHg 23%
    22:00 +39°C° 0 mm 6 mps 750 mmHg 28%
    23:00 +38°C° 0 mm 6 mps 750 mmHg 33%

    21 September, Saturday

    Time Temperature Precipitation Wind Pressure Humidity
    00:00 +36°C° 0 mm 6 mps 750 mmHg 35%
    01:00 +35°C° 0 mm 6 mps 749 mmHg 38%
    02:00 +35°C° 0 mm 5 mps 749 mmHg 40%
    03:00 +34°C° 0 mm 5 mps 749 mmHg 41%
    04:00 +34°C° 0 mm 5 mps 749 mmHg 42%
    05:00 +33°C° 0 mm 5 mps 749 mmHg 42%
    06:00 +34°C° 0 mm 4 mps 749 mmHg 42%
    07:00 +35°C° 0 mm 4 mps 750 mmHg 41%
    08:00 +35°C° 0 mm 3 mps 750 mmHg 40%
    09:00 +38°C° 0 mm 3 mps 750 mmHg 34%
    10:00 +40°C° 0 mm 2 mps 750 mmHg 28%
    11:00 +42°C° 0 mm 1 mps 750 mmHg 22%
    12:00 +45°C° 0 mm 2 mps 750 mmHg 19%
    13:00 +46°C° 0 mm 2 mps 749 mmHg 17%
    14:00 +47°C° 0 mm 2 mps 748 mmHg 14%
    15:00 +47°C° 0 mm 3 mps 748 mmHg 13%
    16:00 +47°C° 0 mm 3 mps 747 mmHg 13%
    17:00 +47°C° 0 mm 3 mps 747 mmHg 12%
    18:00 +46°C° 0 mm 3 mps 747 mmHg 14%
    19:00 +44°C° 0 mm 3 mps 748 mmHg 16%
    20:00 +43°C° 0 mm 3 mps 748 mmHg 18%
    21:00 +40°C° 0 mm 3 mps 749 mmHg 23%
    22:00 +39°C° 0 mm 3 mps 749 mmHg 29%
    23:00 +37°C° 0 mm 3 mps 749 mmHg 34%

    22 September, Sunday

    Time Temperature Precipitation Wind Pressure Humidity
    00:00 +37°C° 0 mm 4 mps 749 mmHg 37%
    01:00 +36°C° 0 mm 4 mps 749 mmHg 40%
    02:00 +35°C° 0 mm 4 mps 749 mmHg 43%
    03:00 +34°C° 0 mm 4 mps 749 mmHg 46%
    04:00 +34°C° 0 mm 4 mps 749 mmHg 49%
    05:00 +33°C° 0 mm 4 mps 749 mmHg 52%
    06:00 +33°C° 0 mm 4 mps 750 mmHg 52%
    07:00 +34°C° 0 mm 4 mps 750 mmHg 52%
    08:00 +34°C° 0 mm 4 mps 751 mmHg 52%
    09:00 +37°C° 0 mm 4 mps 751 mmHg 44%
    10:00 +39°C° 0 mm 3 mps 751 mmHg 36%
    11:00 +43°C° 0 mm 3 mps 751 mmHg 28%
    12:00 +44°C° 0 mm 3 mps 750 mmHg 25%
    13:00 +45°C° 0 mm 3 mps 750 mmHg 22%
    14:00 +46°C° 0 mm 3 mps 749 mmHg 19%
    15:00 +47°C° 0 mm 4 mps 749 mmHg 18%
    16:00 +47°C° 0 mm 4 mps 748 mmHg 18%
    17:00 +47°C° 0 mm 4 mps 748 mmHg 17%
    18:00 +45°C° 0 mm 3 mps 748 mmHg 19%
    19:00 +44°C° 0 mm 3 mps 749 mmHg 20%
    20:00 +42°C° 0 mm 2 mps 749 mmHg 22%
    21:00 +42°C° 0 mm 3 mps 749 mmHg 27%
    22:00 +40°C° 0 mm 4 mps 749 mmHg 32%
    23:00 +39°C° 0 mm 5 mps 750 mmHg 37%
    Show more